Location: ??????????
(42.1626°N, 44.1160°E)
Time: 13:42:14
(UTC+00:00)

SME Rocket - Pass Details

Date: 03 March 2021
Orbit: 550 x 2652 km, 99.9° (Epoch: 20 April)

Event Time Altitude Azimuth Distance (km) Brightness Sun altitude
Rises 17:09:33 0° 13° (NNE) 4,904 7.7 -25.4°
Reaches altitude 10° 17:13:02 10° 12° (NNE) 3,594 7.0 -26.0°
Maximum altitude 17:20:55 69° 291° (WNW) 1,096 4.3 -27.4°
Drops below altitude 10° 17:26:02 10° 208° (SSW) 2,360 6.1 -28.3°
Sets 17:27:56 0° 206° (SSW) 3,128 6.8 -28.6°
